THOR ABLESTAR DEB, 745

Orbit data source: Space-Track

THOR ABLESTAR DEB, 745 is space debris in LEO originally from a launch on Sat, 28 Sep 1963 UTC launched from the Air Force Western Test Range (AFWTR). Debris objects in space refer to the collection of defunct objects orbiting the Earth. Examples of debris include non-operational satellites, rocket bodies, and fragments generated from explosions, collisions, or faulty payload assembly.

Loading next visibility...
Identifier
745, 1963-038E
Orbit
LEO
Country
Flag of USUS
Related business
Manufacturer
Unknown
Mission
Spacecraft
Bus & Motor
Unknown
Mass
Unknown
Launch date (UTC)
1963-09-28 (62 years ago)
Launch vehicle
Unknown
Launch site
Air Force Western Test Range (AFWTR)
Object type
Payload
Rocket body
Debris
Shape & HBR
Unknown
Radar Cross Section
Small (<0.1 m²)

Expand to show TLE details & history
Last TLE update: 16 hours ago

TLE from 16 hours ago
0 THOR ABLESTAR DEB
1 00745U 63038E   25243.24721267  .00000215  00000-0  29537-3 0  9990
2 00745  89.9992 336.4279 0019299  63.8910 325.2709 13.55450055 52159
Epoch: 2025-08-31T05:55Z
TLE epoch observation values (Epoch: 2025-08-31T05:55:59.174Z)
Latitude
29.07965°
Longitude
-92.23811°
Altitude
1,044.167 km
Speed
7.338 km/s
True Right ascension
22h 25m 42s
True Declination
28° 56' 22"
Sunlit
Object was in full shadow at epoch
Visualization orbit readout
Latitude
Unknown
Longitude
Unknown
Altitude
Unknown
Speed
Unknown
Apparent Right ascension
Unknown
Apparent Declination
Unknown
Sunlit
N/A
Visualization observer readout
Local Sidereal Time
13:44:14
Azimuth
Unknown
Elevation
Unknown
Doppler factor
Unknown
Orbital elements
Apogee altitude
1,063.65 km
Perigee altitude
1,034.981 km
Semi-major axis
7,427.453 km
Eccentricity
0.00193
Inclination
89.9992°
RAAN
336.4279°
Arg. of periapsis
63.891°
True anomaly
325.14466°
Mean anomaly
325.2709°
Eccentric anomaly
325.20781°
Mean motion
3.39065 °/min
Orbital period
106.17 mins
BSTAR
0.00029537
Loading maneuver chart data...
Computing Atmospheric mass density...

Documentation

Showing up to 5 results
|